Météo par heure à Jurkowo

Ce jour, 20 Juin, Dimanche

Heure Température Précipitation Vent Pression Humidité
00:00 +19°C° 0 mm 2 m/s 751 mmHg 90%
01:00 +19°C° 0 mm 2 m/s 751 mmHg 91%
02:00 +19°C° 0 mm 2 m/s 751 mmHg 91%
03:00 +18°C° 0 mm 2 m/s 750 mmHg 91%
04:00 +18°C° 0 mm 2 m/s 750 mmHg 91%
05:00 +20°C° 0 mm 3 m/s 750 mmHg 85%
06:00 +22°C° 0 mm 3 m/s 750 mmHg 79%
07:00 +25°C° 0 mm 4 m/s 750 mmHg 73%
08:00 +26°C° 0 mm 4 m/s 750 mmHg 68%
09:00 +27°C° 0 mm 4 m/s 750 mmHg 64%
10:00 +28°C° 0 mm 4 m/s 750 mmHg 59%
11:00 +29°C° 0.3 mm 4 m/s 750 mmHg 58%
12:00 +29°C° 0.3 mm 4 m/s 750 mmHg 58%
13:00 +30°C° 0.3 mm 4 m/s 749 mmHg 57%
14:00 +30°C° 0 mm 4 m/s 749 mmHg 57%
15:00 +30°C° 0 mm 4 m/s 749 mmHg 57%
16:00 +30°C° 0 mm 4 m/s 748 mmHg 57%
17:00 +29°C° 0.1 mm 4 m/s 748 mmHg 64%
18:00 +27°C° 0.1 mm 3 m/s 748 mmHg 71%
19:00 +25°C° 0.1 mm 3 m/s 748 mmHg 78%
20:00 +24°C° 0 mm 3 m/s 748 mmHg 82%
21:00 +22°C° 0 mm 3 m/s 748 mmHg 86%
22:00 +21°C° 0 mm 2 m/s 748 mmHg 91%
23:00 +20°C° 0 mm 2 m/s 748 mmHg 92%

Demain, 21 Juin, Lundi

Heure Température Précipitation Vent Pression Humidité
00:00 +20°C° 0 mm 2 m/s 748 mmHg 93%
01:00 +20°C° 0 mm 3 m/s 748 mmHg 93%
02:00 +20°C° 0 mm 2 m/s 748 mmHg 94%
03:00 +19°C° 0 mm 2 m/s 748 mmHg 94%
04:00 +19°C° 0 mm 2 m/s 747 mmHg 94%
05:00 +21°C° 0 mm 3 m/s 748 mmHg 88%
06:00 +22°C° 0 mm 4 m/s 748 mmHg 81%
07:00 +25°C° 0 mm 4 m/s 748 mmHg 75%
08:00 +26°C° 0 mm 5 m/s 747 mmHg 69%
09:00 +27°C° 0 mm 5 m/s 747 mmHg 63%
10:00 +28°C° 0 mm 5 m/s 747 mmHg 57%
11:00 +29°C° 0 mm 5 m/s 747 mmHg 55%
12:00 +29°C° 0 mm 5 m/s 747 mmHg 53%
13:00 +30°C° 0 mm 5 m/s 747 mmHg 51%
14:00 +29°C° 0 mm 5 m/s 746 mmHg 56%
15:00 +28°C° 0 mm 5 m/s 746 mmHg 61%
16:00 +27°C° 0 mm 4 m/s 746 mmHg 65%
17:00 +26°C° 0.2 mm 4 m/s 746 mmHg 70%
18:00 +25°C° 0.2 mm 3 m/s 745 mmHg 75%
19:00 +24°C° 0.2 mm 3 m/s 745 mmHg 80%
20:00 +22°C° 0 mm 3 m/s 745 mmHg 84%
21:00 +21°C° 0 mm 3 m/s 746 mmHg 88%
22:00 +20°C° 0 mm 3 m/s 746 mmHg 91%
23:00 +20°C° 0 mm 3 m/s 746 mmHg 92%

Après-demain, 22 Juin, Mardi

Heure Température Précipitation Vent Pression Humidité
00:00 +20°C° 0 mm 3 m/s 745 mmHg 93%
01:00 +19°C° 0 mm 3 m/s 745 mmHg 94%
02:00 +19°C° 0 mm 3 m/s 745 mmHg 94%
03:00 +19°C° 0 mm 3 m/s 745 mmHg 94%
04:00 +19°C° 0 mm 3 m/s 745 mmHg 94%
05:00 +21°C° 0 mm 3 m/s 745 mmHg 88%
06:00 +22°C° 0 mm 3 m/s 746 mmHg 83%
07:00 +25°C° 0 mm 4 m/s 746 mmHg 77%
08:00 +26°C° 0.2 mm 4 m/s 746 mmHg 73%
09:00 +27°C° 0.2 mm 4 m/s 746 mmHg 69%
10:00 +28°C° 0.2 mm 4 m/s 746 mmHg 66%
11:00 +28°C° 0.8 mm 4 m/s 746 mmHg 68%
12:00 +28°C° 0.8 mm 3 m/s 746 mmHg 71%
13:00 +27°C° 0.8 mm 3 m/s 747 mmHg 74%
14:00 +27°C° 1.2 mm 3 m/s 747 mmHg 79%
15:00 +26°C° 1.2 mm 2 m/s 747 mmHg 83%
16:00 +25°C° 1.2 mm 2 m/s 747 mmHg 88%
17:00 +24°C° 0.6 mm 2 m/s 747 mmHg 90%
18:00 +23°C° 0.6 mm 2 m/s 747 mmHg 91%
19:00 +21°C° 0.6 mm 2 m/s 748 mmHg 93%
20:00 +21°C° 0 mm 2 m/s 748 mmHg 94%
21:00 +20°C° 0 mm 2 m/s 748 mmHg 95%
22:00 +19°C° 0 mm 2 m/s 748 mmHg 96%
23:00 +19°C° 0.1 mm 2 m/s 748 mmHg 96%

23 Juin, Mercredi

Heure Température Précipitation Vent Pression Humidité
00:00 +18°C° 0.1 mm 2 m/s 748 mmHg 97%
01:00 +17°C° 0.1 mm 2 m/s 748 mmHg 97%
02:00 +17°C° 0 mm 2 m/s 748 mmHg 97%
03:00 +17°C° 0 mm 2 m/s 748 mmHg 97%
04:00 +17°C° 0 mm 2 m/s 749 mmHg 97%
05:00 +19°C° 0 mm 2 m/s 749 mmHg 93%
06:00 +20°C° 0 mm 2 m/s 749 mmHg 89%
07:00 +23°C° 0 mm 2 m/s 749 mmHg 85%
08:00 +25°C° 0 mm 2 m/s 749 mmHg 79%
09:00 +27°C° 0 mm 2 m/s 749 mmHg 73%
10:00 +28°C° 0 mm 2 m/s 749 mmHg 68%
11:00 +29°C° 0.7 mm 2 m/s 749 mmHg 67%
12:00 +29°C° 0.7 mm 2 m/s 749 mmHg 67%
13:00 +30°C° 0.7 mm 2 m/s 749 mmHg 66%
14:00 +30°C° 0.7 mm 2 m/s 749 mmHg 67%
15:00 +30°C° 0.7 mm 2 m/s 749 mmHg 68%
16:00 +30°C° 0.7 mm 2 m/s 749 mmHg 68%
17:00 +28°C° 0.6 mm 2 m/s 749 mmHg 73%
18:00 +27°C° 0.6 mm 1 m/s 748 mmHg 78%
19:00 +26°C° 0.6 mm 1 m/s 748 mmHg 82%
20:00 +25°C° 0.5 mm 1 m/s 749 mmHg 85%
21:00 +24°C° 0.5 mm 1 m/s 749 mmHg 87%
22:00 +23°C° 0.5 mm 1 m/s 749 mmHg 90%
23:00 +22°C° 0.4 mm 1 m/s 749 mmHg 90%

24 Juin, Jeudi

Heure Température Précipitation Vent Pression Humidité
00:00 +22°C° 0.4 mm 1 m/s 749 mmHg 91%
01:00 +21°C° 0.4 mm 1 m/s 749 mmHg 91%
02:00 +20°C° 0 mm 2 m/s 749 mmHg 92%
03:00 +20°C° 0 mm 2 m/s 749 mmHg 94%
04:00 +19°C° 0 mm 2 m/s 749 mmHg 95%
05:00 +20°C° 0 mm 2 m/s 749 mmHg 93%
06:00 +21°C° 0 mm 3 m/s 750 mmHg 90%
07:00 +22°C° 0 mm 3 m/s 750 mmHg 88%
08:00 +25°C° 0 mm 3 m/s 750 mmHg 82%
09:00 +26°C° 0 mm 3 m/s 750 mmHg 75%
10:00 +27°C° 0 mm 3 m/s 751 mmHg 68%
11:00 +28°C° 0 mm 3 m/s 751 mmHg 64%
12:00 +28°C° 0 mm 3 m/s 751 mmHg 59%
13:00 +29°C° 0 mm 3 m/s 751 mmHg 54%
14:00 +29°C° 0 mm 2 m/s 750 mmHg 54%
15:00 +29°C° 0 mm 2 m/s 750 mmHg 55%
16:00 +29°C° 0 mm 2 m/s 750 mmHg 55%
17:00 +27°C° 0 mm 2 m/s 750 mmHg 64%
18:00 +26°C° 0 mm 2 m/s 750 mmHg 73%
19:00 +24°C° 0 mm 3 m/s 750 mmHg 82%
20:00 +21°C° 0 mm 3 m/s 750 mmHg 86%
21:00 +20°C° 0 mm 3 m/s 750 mmHg 91%
22:00 +18°C° 0 mm 3 m/s 750 mmHg 96%
23:00 +17°C° 0 mm 3 m/s 750 mmHg 95%

25 Juin, Vendredi

Heure Température Précipitation Vent Pression Humidité
00:00 +17°C° 0 mm 3 m/s 750 mmHg 95%
01:00 +16°C° 0 mm 3 m/s 749 mmHg 95%
02:00 +16°C° 0.4 mm 2 m/s 749 mmHg 95%
03:00 +16°C° 0.4 mm 2 m/s 749 mmHg 95%
04:00 +16°C° 0.4 mm 2 m/s 749 mmHg 95%
05:00 +17°C° 0.7 mm 2 m/s 748 mmHg 94%
06:00 +17°C° 0.7 mm 3 m/s 748 mmHg 94%
07:00 +18°C° 0.7 mm 4 m/s 747 mmHg 94%
08:00 +20°C° 0 mm 3 m/s 748 mmHg 89%
09:00 +21°C° 0 mm 2 m/s 748 mmHg 85%
10:00 +24°C° 0 mm 1 m/s 748 mmHg 81%
11:00 +25°C° 0.1 mm 1 m/s 748 mmHg 77%
12:00 +26°C° 0.1 mm 2 m/s 748 mmHg 73%
13:00 +27°C° 0.1 mm 2 m/s 748 mmHg 69%
14:00 +26°C° 0.4 mm 3 m/s 748 mmHg 74%
15:00 +25°C° 0.4 mm 3 m/s 748 mmHg 78%
16:00 +23°C° 0.4 mm 4 m/s 748 mmHg 82%
17:00 +21°C° 0.2 mm 5 m/s 748 mmHg 84%
18:00 +19°C° 0.2 mm 5 m/s 748 mmHg 87%
19:00 +16°C° 0.2 mm 6 m/s 749 mmHg 89%
20:00 +16°C° 0 mm 5 m/s 749 mmHg 88%
21:00 +15°C° 0 mm 5 m/s 749 mmHg 88%
22:00 +14°C° 0 mm 5 m/s 750 mmHg 87%
23:00 +14°C° 0 mm 4 m/s 750 mmHg 90%
Voir plus

Nous avons besoin de votre consentement

Meteoprog et ses fournisseurs de services peuvent stocker et accéder à des données personnelles telles que des cookies, des identifiants d'appareils ou d'autres technologies similaires sur votre appareil et traiter ces données pour personnaliser le contenu et les publicités, ainsi que pour fournir des fonctionnalités de médias sociaux et analyser le trafic.

  • Stocker et/ou accéder à des informations sur votre appareil

    Des cookies, des identifiants d'appareils ou d'autres informations peuvent être stockés ou accessibles sur votre appareil aux fins indiquées ci-dessus.

  • Annonces et contenus personnalisés, mesure des annonces et des contenus, connaissance de l'audience et développement de produits

    Les annonces et le contenu peuvent être personnalisés en fonction d'un profil. D'autres données peuvent être ajoutées pour mieux personnaliser les annonces et le contenu. Les performances des publicités et du contenu peuvent être mesurées. Il est possible d'obtenir des informations sur le public qui a vu les publicités et le contenu. Ces données peuvent être utilisées pour développer ou améliorer l'expérience de l'utilisateur, les systèmes et les logiciels.

En cliquant sur "J'accepte", vous autorisez l'utilisation de cookies, des identifiants d'appareils, des balises web ou d'autres technologies similaires. Vos paramètres peuvent être modifiés dans le navigateur de votre appareil.

Dans certains cas, des intérêts légitimes peuvent être invoqués plutôt qu'un consentement. Vous pouvez en savoir plus à ce sujet dans notre Politique de confidentialité et de cookies.